Grigor Bayramyan

Chefscout - Ararat
10 Sep 2028
Sonntag
Verarbeitung

Persönlichkeit

Anpassungsfähigkeit (8) Ehrgeiz (11) Kontroverse (15) Loyalität (8) Druck (11) Professionalität (13) Fairness (2) Temperament (1)

Profil

Trainerstil Demokratisch
Lizenz Kontinentale B
Entschlossenheit 5
Menschenführung 6
Motivation 10
Disziplin 8
Arbeitszufriedenheit
100%
Ermüdung
0%
Rolle Chefscout
Gehalt 32.3K p/W
Vertrag 14.03.2030

Leistung

Verhalten Gut
Trainingseffektivität
44%
Spielerentwicklung
15%
Verletzungsprävention
30%
Taktische Umsetzung
45%

Letzte Ereignisse

Nahm an einer Scouting-Besprechung teil 7T her
Nahm an einer Scouting-Besprechung teil 14T her
Nahm an einer Scouting-Besprechung teil 21T her
Nahm an einer Scouting-Besprechung teil 28T her
Nahm an einer Scouting-Besprechung teil 35T her
Nahm an einer Scouting-Besprechung teil 42T her
Nahm an einer Scouting-Besprechung teil 49T her
Nahm an einer Scouting-Besprechung teil 56T her

Aktuell beobachtet

120
Spieler Verein Status Fähigkeit Vertrauen Beobachtet Zuletzt beobachtet Letzte Stimme
Alejandro Rincon Llaneros Aktiv 112 / 101 40% 3 29.12.2027 -
Lucas Cano All Boys Aktiv 103 / 98 40% 4 28.12.2027 -
Santiago Rodríguez Gimnasia y Esgrima Aktiv 111 / 118 40% 3 28.12.2027 -
Rodrigo Pollero Deportivo Tachira Aktiv 107 / 119 40% 3 26.12.2027 -
Lisandro Cabrera Maipú Aktiv 120 / 102 40% 2 26.12.2027 -
Dato Mchedlidze Tskhinvali Aktiv 90 / 101 40% 1 25.12.2027 -
Tobías Cervera Gimnasia y Esgrima Aktiv 102 / 113 40% 1 25.12.2027 -
Daniel Barrea Godoy Cruz Aktiv 116 / 135 40% 4 24.12.2027 -
Santiago Sala Güemes Aktiv 124 / 105 40% 3 24.12.2027 -
Octavio Bianchi Gimnasia y Esgrima Aktiv 121 / 119 40% 1 23.12.2027 -
Agustín Gallo Tristán Suárez Aktiv 120 / 110 40% 3 17.12.2027 -
Sagir Arce Saburtalo Aktiv 94 / 109 40% 4 11.12.2027 -
Gianluca Pugliese Güemes Aktiv 119 / 105 40% 4 11.12.2027 -
Sebastián Marfort Racing Aktiv 89 / 114 40% 1 06.12.2027 -
Lautaro Gordillo Colegiales Aktiv 115 / 123 40% 3 05.12.2027 -
Renzo Reynaga Patronato Aktiv 109 / 98 40% 2 05.12.2027 -
Ronaldo Peña Deportivo Lara Aktiv 112 / 93 40% 4 03.12.2027 -
Franco Ayunta Temperley Aktiv 117 / 111 40% 4 03.12.2027 -
José Balza Deportivo Tachira Aktiv 105 / 106 40% 2 02.12.2027 -
Jeriel De Santis Caracas Aktiv 104 / 114 40% 2 01.12.2027 -
Elías Peralta Lokomotivi Aktiv 100 / 94 40% 1 01.12.2027 -
Jhonatan Candia Barracas Central Aktiv 111 / 110 40% 2 30.11.2027 -
Genaro Rossi San Martín SJ Aktiv 115 / 105 40% 2 30.11.2027 -
Juan David Rueda Alianza Petrolera Aktiv 129 / 99 40% 2 27.11.2027 -
Rafael Moreno Atletico Venezuela Aktiv 123 / 128 40% 2 26.11.2027 -
Rodrigo Mosqueira Stjarnan Aktiv 112 / 102 40% 2 26.11.2027 -
Richard Figueroa Deportivo Lara Aktiv 127 / 93 40% 1 25.11.2027 -
Álex Arce Independiente Rivadavia Aktiv 125 / 139 40% 1 23.11.2027 -
Mauricio Márquez Caracas Aktiv 120 / 101 40% 7 20.11.2027 -
Ronny Maza Aragua Aktiv 113 / 103 40% 1 20.11.2027 -
José Barreto Quilmes Aktiv 135 / 118 40% 2 19.11.2027 -
Lorenzo Barrera Agropecuario Argentino Aktiv 86 / 94 40% 2 19.11.2027 -
Sergio González Racing Aktiv 134 / 110 40% 2 17.11.2027 -
Favio Cabral Mitre Aktiv 111 / 108 40% 1 17.11.2027 -
Agustín Lavezzi Quilmes Aktiv 90 / 103 40% 1 15.11.2027 -
Salomon Ramirez Atletico Venezuela Aktiv 92 / 107 40% 1 12.11.2027 -
Gustavo Viera Cerro Largo Aktiv 97 / 115 40% 1 06.11.2027 -
Enzo González Defensores Aktiv 99 / 111 40% 2 05.11.2027 -
Sebastián Cocimano Nueva Chicago Aktiv 104 / 117 40% 3 05.11.2027 -
Tornike Mikautadze Tskhinvali Aktiv 112 / 105 40% 1 28.10.2027 -
Matías Samaniego Talleres Aktiv 102 / 85 40% 2 27.10.2027 -
César Magallan Estudiantes de Merida Aktiv 114 / 120 40% 4 22.10.2027 -
Kekuta Manneh Samtredia Aktiv 104 / 83 40% 1 22.10.2027 -
Nicolás Heiz Maipú Aktiv 103 / 96 40% 2 21.10.2027 -
Rafael Arace Caracas Aktiv 127 / 118 40% 2 07.10.2027 -
Alan Bonansea Colón Aktiv 94 / 102 40% 2 06.10.2027 -
Junior Paredes Trujillanos Aktiv 95 / 93 40% 1 06.10.2027 -
Juan Mendoza Güemes Aktiv 86 / 115 40% 1 24.09.2027 -
Adalberto Peñaranda Deportivo Tachira Aktiv 139 / 99 40% 2 17.09.2027 -
Rodrigo Bogarín Barracas Central Aktiv 129 / 125 40% 1 11.09.2027 -
Camilo Machado Madryn Aktiv 115 / 101 40% 1 08.09.2027 -
Tomás Bolzicco Chaco For Ever Aktiv 81 / 112 40% 1 08.09.2027 -
Rui Costa Port Vale Aktiv 104 / 122 40% 1 09.08.2027 -
Lorenzo De Leo Renate Aktiv 92 / 90 40% 1 26.07.2027 -
Giuseppe Panico Foggia Aktiv 140 / 111 40% 2 19.07.2027 -
Augusto Berrondo Tristán Suárez Aktiv 125 / 97 40% 1 19.07.2027 -
Andrew Dallas Sambenedettese Aktiv 83 / 103 40% 1 12.07.2027 -
Patrick Schmidt Tarxien Rainbows Aktiv 88 / 102 40% 3 22.06.2027 -
Ruslan Apekov Torpedo Moscow Aktiv 87 / 104 40% 1 01.06.2027 -
Mikhail Ignatov Sochi Aktiv 136 / 123 40% 1 29.05.2027 -
Thom van Bergen Groningen Aktiv 108 / 119 40% 1 28.05.2027 -
Damir Céter Hamrun Spartans Aktiv 105 / 115 40% 2 26.05.2027 -
Martin Sekulić Ural Aktiv 132 / 102 40% 2 24.05.2027 -
Mômô Fanyé Touré Alashkert Aktiv 117 / 119 40% 3 22.05.2027 -
Törles Knöll Al-Ta'ee Aktiv 108 / 117 40% 1 22.05.2027 -
Jonathan Cañete Portuguesa Aktiv 137 / 105 40% 1 20.05.2027 -
Yakou Meïté Damac Aktiv 119 / 109 40% 3 17.05.2027 -
Vladislav Sarveli Nizhniy Novgorod Aktiv 129 / 117 40% 2 15.05.2027 -
Kamran Aliev SKA Khabarovsk Aktiv 102 / 96 40% 3 11.05.2027 -
Robert Murić Floriana Aktiv 88 / 86 40% 1 02.05.2027 -
Prince Ibara Al-Njoom Aktiv 101 / 105 40% 1 02.05.2027 -
David Davidyan Rotor Aktiv 81 / 116 40% 1 01.05.2027 -
Ekain Orobengoa Real Sociedad Aktiv 81 / 100 40% 1 30.04.2027 -
Matheus Aiás Noah Aktiv 105 / 125 40% 2 27.04.2027 -
Georgy Gongadze Ufa Aktiv 76 / 113 40% 1 23.04.2027 -
Yeangel Montero Naxxar Lions Aktiv 100 / 93 40% 2 17.04.2027 -
Moussakoye Diallo Stade Malien Aktiv 123 / 104 40% 1 17.04.2027 -
Alexandr Saplinov Volga Aktiv 93 / 99 40% 2 16.04.2027 -
Georgy Melkadze Akhmat Grozny Aktiv 119 / 103 40% 1 15.04.2027 -
Leandro Antunes Al-Riyadh Aktiv 123 / 115 40% 1 08.04.2027 -
Carlos Guerreño Hajer Aktiv 84 / 103 40% 3 07.04.2027 -
Indrit Tuci Olimpija Ljubljana Aktiv 87 / 107 40% 1 07.04.2027 -
Renat Garayev AZAL Aktiv 121 / 100 40% 3 06.04.2027 -
Artem Poliarus Urartu Aktiv 108 / 111 41% 1 25.01.2027 -
Kauan Floriana Aktiv 106 / 106 40% 1 03.01.2027 -
Yilson Mosquera Tarxien Rainbows Aktiv 97 / 93 40% 1 02.01.2027 -
Vyacheslav Grulev Nizhniy Novgorod Aktiv 89 / 125 40% 2 31.12.2026 -
Khetag Khosonov Akron Aktiv 112 / 110 40% 1 31.12.2026 -
François Kamano Sochi Aktiv 99 / 129 40% 1 21.12.2026 -
Karim El Berkaoui Al-Khaleej Aktiv 111 / 134 40% 2 19.12.2026 -
Alexey Kashtanov Torpedo Moscow Aktiv 113 / 119 40% 1 17.12.2026 -
Younes El Bahraoui Al-Taawoun Aktiv 119 / 113 40% 1 16.12.2026 -
Oumar Gonzalez Al-Ra'ed Aktiv 106 / 134 40% 1 15.12.2026 -
Artem Sokol Rodina Aktiv 113 / 98 40% 1 15.12.2026 -
Musa Qurbanlı Qarabag Aktiv 116 / 102 40% 1 11.12.2026 -
Leandro Lacunza Hibernians Aktiv 116 / 82 40% 1 08.12.2026 -
Shahriyar Abdullayev Ravan Aktiv 97 / 110 40% 1 07.12.2026 -
Zoumana Simpara Djoliba Aktiv 87 / 99 40% 1 02.12.2026 -
Yegor Kortsov Dinamo Brest Aktiv 116 / 97 40% 1 28.11.2026 -
David Karaev KAMAZ Aktiv 111 / 92 40% 1 26.11.2026 -
Jáder Valencia Deportes Tolima Aktiv 133 / 102 40% 1 25.11.2026 -
Rüstəm Əhmədzadə Sumgayit Aktiv 103 / 118 40% 1 25.11.2026 -
Ilja Safronov Rotor Aktiv 102 / 96 40% 1 23.11.2026 -
Liam Bennett Cambridge United Aktiv 121 / 107 40% 1 21.11.2026 -
Cavid Nazarov Khazar Aktiv 117 / 116 40% 1 19.11.2026 -
Macaulay Langstaff Millwall Aktiv 107 / 126 40% 2 18.11.2026 -
Gevorg Tarakhchyan Pyunik Aktiv 115 / 89 40% 1 24.09.2026 -
Magnus Lankhof Dahlby Stabaek Aktiv 95 / 87 40% 1 22.09.2026 -
Denzel Jubitana Neftchi Aktiv 127 / 108 40% 1 19.09.2026 -
Egor Bogomolskiy Zira Aktiv 102 / 95 40% 1 18.09.2026 -
Paul Ayongo Ararat-Armenia Aktiv 105 / 119 40% 1 16.09.2026 -
Matty Stevens AFC Wimbledon Aktiv 90 / 122 40% 1 14.09.2026 -
Steven Alfred Torpedo-BelAZ Aktiv 94 / 83 40% 1 14.09.2026 -
Mo Dauda Portimonense Aktiv 109 / 92 40% 1 13.09.2026 -
Will Swan Bradford City Aktiv 78 / 99 40% 1 08.09.2026 -
Valentin Costache Noah Aktiv 111 / 127 40% 1 08.09.2026 -
Vladislav Yatskevich BATE Aktiv 122 / 99 40% 1 07.09.2026 -
Jonel Désirè Van Aktiv 79 / 85 41% 1 31.08.2026 -
Allef Van Aktiv 82 / 98 41% 1 10.08.2026 -
Hamlet Mnatsakanyan Shirak Aktiv 92 / 88 41% 1 03.08.2026 -